Location: Fuglau
(48.6333°N, 15.5500°E)
Time: 10:52:58
(UTC+00:00)

STARLINK-1034 - Pass Details

Date: 27 February 2020
Orbit: 549 x 550 km, 53.0° (Epoch: 09 April)

Event Time Altitude Azimuth Distance (km) Brightness Sun altitude
Rises 17:33:13 0° 253° (WSW) 2,714 8.9 -10.0°
Reaches altitude 10° 17:35:27 10° 256° (WSW) 1,822 7.7 -10.4°
Maximum altitude 17:39:35 68° 340° (NNW) 596 3.8 -11.0°
Enters shadow 17:43:05 14° 63° (ENE) 1,582 5.4 -11.6°
